This demonstration page uses our WeatherBlox Daily Observations layout. Learn more.

Left ArrowRight Arrow

39.92423, -83.80882

Hourly Observations for June 13, 2018

Temp ( °F °C ) Dew Point ( °F °C ) Humidity (%) Winds ( mph kmh ) Pressure ( in mb ) Visibility ( mi km ) Precip ( " mm )
12:56 am 00:56 Clear 70 21.1 68 20 93 93 SSW 3 6 29.93 1014 10 16 N/A
1:56 am 01:56 Clear 70 21.1 69 20.6 97 97 SSW 10 17 29.91 1013 10 16 N/A
2:56 am 02:56 Clear 70 21.1 69 20.6 97 97 SSW 10 17 29.90 1013 10 16 N/A
3:56 am 03:56 Clear 70 21.1 68 20 93 93 SW 14 22 29.91 1013 10 16 N/A
4:56 am 04:56 Clear 69 20.6 68 20 96 96 SW 13 20 29.90 1013 10 16 N/A
5:56 am 05:56 Clear 69 20.6 68 20 96 96 SW 9 15 29.91 1013 8 13 N/A
6:56 am 06:56 Partly Cloudy with Mist and Fog 70 21.1 68 20 93 93 WSW 9 15 29.92 1013 6 10 N/A
7:56 am 07:56 Partly Cloudy with Mist and Fog 70 21.1 69 20.6 97 97 W 12 19 29.93 1013 4 6 N/A
8:56 am 08:56 Sunny 71 21.7 69 20.6 94 94 WSW 14 22 29.93 1014 7 11 N/A
9:56 am 09:56 Sunny 74 23.3 69 20.6 85 85 WSW 13 20 29.94 1014 10 16 N/A
10:56 am 10:56 Sunny 77 25 71 21.7 82 82 WSW 9 15 29.94 1014 10 16 N/A
11:56 am 11:56 Sunny 79 26.1 72 22.2 79 79 WSW 13 20 29.94 1014 10 16 N/A
12:56 pm 12:56 Sunny 80 26.7 73 22.8 79 79 SW 13 20 29.94 1014 10 16 N/A
1:56 pm 13:56 Sunny 82 27.8 72 22.2 72 72 SW 14 22 29.92 1013 10 16 N/A
2:56 pm 14:56 Sunny 82 27.8 72 22.2 72 72 SSW 12 19 29.90 1013 10 16 N/A
3:56 pm 15:56 Partly Cloudy with Nearby Thunderstorms 81 27.2 72 22.2 74 74 SW 12 19 29.89 1012 10 16 N/A
4:46 pm 16:46 Partly Cloudy with Thunderstorms 72 22 70 21 94 94 NNE 18 30 29.91 1013 8 13 N/A
4:56 pm 16:56 Partly Cloudy with Strong Thunderstorms 70 21.1 69 20.6 97 97 NE 7 11 29.93 1014 3 5 0.11 2.79
5:04 pm 17:04 Partly Cloudy with Strong Thunderstorms 70 21 70 21 100 100 N N/A 29.91 1013 1 1 0.27 6.86
5:08 pm 17:08 Partly Cloudy with Heavy Rain 72 22 70 21 94 94 W 5 7 29.91 1013 1 2 0.33 8.38
5:12 pm 17:12 Partly Cloudy with Strong Thunderstorms 72 22 70 21 94 94 N N/A 29.91 1013 1 2 0.37 9.40
5:20 pm 17:20 Partly Cloudy with Thunderstorms 72 22 70 21 94 94 N N/A 29.91 1013 8 13 0.37 9.40
5:56 pm 17:56 Sunny 73 22.8 71 21.7 94 94 NW 3 6 29.94 1014 10 16 0.37 9.40
6:56 pm 18:56 Sunny 77 25 72 22.2 85 85 W 10 17 29.92 1013 10 16 N/A
7:56 pm 19:56 Sunny 77 25 72 22.2 85 85 W 8 13 29.93 1014 10 16 N/A
8:56 pm 20:56 Sunny 75 23.9 71 21.7 88 88 NW 7 11 29.93 1014 10 16 N/A
10:56 pm 22:56 Clear 67 19.4 59 15 76 76 NNW 8 13 30.00 1016 10 16 N/A

Powered by AerisWeather